Year,Month,Day,Hour,Minute,Value (Times are PST for temperature in C)
2020,11,30,00,00,4.90
2020,11,30,00,01,4.90
2020,11,30,00,02,4.90
2020,11,30,00,03,4.90
2020,11,30,00,04,4.90
2020,11,30,00,05,4.90
2020,11,30,00,06,4.90
2020,11,30,00,07,4.90
2020,11,30,00,08,4.90
2020,11,30,00,09,4.90
2020,11,30,00,10,4.90
2020,11,30,00,11,4.90
2020,11,30,00,12,4.90
2020,11,30,00,13,4.90
2020,11,30,00,14,4.90
2020,11,30,00,15,4.90
2020,11,30,00,16,4.90
2020,11,30,00,17,4.90
2020,11,30,00,18,4.90
2020,11,30,00,19,4.90
2020,11,30,00,20,4.90
2020,11,30,00,21,4.90
2020,11,30,00,22,4.90
2020,11,30,00,23,4.90
2020,11,30,00,24,4.90
2020,11,30,00,25,4.90
2020,11,30,00,26,4.90
2020,11,30,00,27,4.90
2020,11,30,00,28,5.00
2020,11,30,00,29,5.00
2020,11,30,00,30,5.00
2020,11,30,00,31,5.00
2020,11,30,00,32,5.00
2020,11,30,00,33,5.00
2020,11,30,00,34,5.00
2020,11,30,00,35,5.00
2020,11,30,00,36,5.00
2020,11,30,00,37,5.00
2020,11,30,00,38,5.00
2020,11,30,00,39,5.00
2020,11,30,00,40,5.00
2020,11,30,00,41,5.00
2020,11,30,00,42,5.00
2020,11,30,00,43,5.00
2020,11,30,00,44,5.00
2020,11,30,00,45,5.00
2020,11,30,00,46,5.00
2020,11,30,00,47,5.00
2020,11,30,00,48,5.00
2020,11,30,00,49,5.00
2020,11,30,00,50,5.00
2020,11,30,00,51,5.00
2020,11,30,00,52,5.00
2020,11,30,00,53,5.00
2020,11,30,00,54,5.10
2020,11,30,00,55,5.10
2020,11,30,00,56,5.10
2020,11,30,00,57,5.10
2020,11,30,00,58,5.10
2020,11,30,00,59,5.10
2020,11,30,01,00,5.10
2020,11,30,01,01,5.10
2020,11,30,01,02,5.10
2020,11,30,01,03,5.10
2020,11,30,01,04,5.10
2020,11,30,01,05,5.20
2020,11,30,01,06,5.20
2020,11,30,01,07,5.20
2020,11,30,01,08,5.20
2020,11,30,01,09,5.20
2020,11,30,01,10,5.30
2020,11,30,01,11,5.30
2020,11,30,01,12,5.30
2020,11,30,01,13,5.30
2020,11,30,01,14,5.40
2020,11,30,01,15,5.40
2020,11,30,01,16,5.40
2020,11,30,01,17,5.40
2020,11,30,01,18,5.40
2020,11,30,01,19,5.40
2020,11,30,01,20,5.40
2020,11,30,01,21,5.50
2020,11,30,01,22,5.50
2020,11,30,01,23,5.50
2020,11,30,01,24,5.50
2020,11,30,01,25,5.50
2020,11,30,01,26,5.50
2020,11,30,01,27,5.50
2020,11,30,01,28,5.40
2020,11,30,01,29,5.40
2020,11,30,01,30,5.40
2020,11,30,01,31,5.50
2020,11,30,01,32,5.50
2020,11,30,01,33,5.50
2020,11,30,01,34,5.50
2020,11,30,01,35,5.50
2020,11,30,01,36,5.50
2020,11,30,01,37,5.50
2020,11,30,01,38,5.50
2020,11,30,01,39,5.60
2020,11,30,01,40,5.60
2020,11,30,01,41,5.60
2020,11,30,01,42,5.60
2020,11,30,01,43,5.60
2020,11,30,01,44,5.60
2020,11,30,01,45,5.60
2020,11,30,01,46,5.70
2020,11,30,01,47,5.70
2020,11,30,01,48,5.80
2020,11,30,01,49,5.90
2020,11,30,01,50,5.90
2020,11,30,01,51,5.90
2020,11,30,01,52,5.90
2020,11,30,01,53,5.90
2020,11,30,01,54,5.80
2020,11,30,01,55,5.80
2020,11,30,01,56,5.70
2020,11,30,01,57,5.70
2020,11,30,01,58,5.70
2020,11,30,01,59,5.70
2020,11,30,02,00,5.60
2020,11,30,02,01,5.60
2020,11,30,02,02,5.60
2020,11,30,02,03,5.60
2020,11,30,02,04,5.60
2020,11,30,02,05,5.60
2020,11,30,02,06,5.50
2020,11,30,02,07,5.50
2020,11,30,02,08,5.50
2020,11,30,02,09,5.50
2020,11,30,02,10,5.50
2020,11,30,02,11,5.50
2020,11,30,02,12,5.50
2020,11,30,02,13,5.50
2020,11,30,02,14,5.50
2020,11,30,02,15,5.50
2020,11,30,02,16,5.50
2020,11,30,02,17,5.50
2020,11,30,02,18,5.50
2020,11,30,02,19,5.60
2020,11,30,02,20,5.60
2020,11,30,02,21,5.60
2020,11,30,02,22,5.60
2020,11,30,02,23,5.60
2020,11,30,02,24,5.60
2020,11,30,02,25,5.60
2020,11,30,02,26,5.60
2020,11,30,02,27,5.60
2020,11,30,02,28,5.60
2020,11,30,02,29,5.60
2020,11,30,02,30,5.60
2020,11,30,02,31,5.60
2020,11,30,02,32,5.60
2020,11,30,02,33,5.60
2020,11,30,02,34,5.60
2020,11,30,02,35,5.60
2020,11,30,02,36,5.60
2020,11,30,02,37,5.60
2020,11,30,02,38,5.60
2020,11,30,02,39,5.60
2020,11,30,02,40,5.60
2020,11,30,02,41,5.60
2020,11,30,02,42,5.60
2020,11,30,02,43,5.60
2020,11,30,02,44,5.50
2020,11,30,02,45,5.50
2020,11,30,02,46,5.60
2020,11,30,02,47,5.60
2020,11,30,02,48,5.50
2020,11,30,02,49,5.60
2020,11,30,02,50,5.60
2020,11,30,02,51,5.60
2020,11,30,02,52,5.60
2020,11,30,02,53,5.60
2020,11,30,02,54,5.60
2020,11,30,02,55,5.60
2020,11,30,02,56,5.60
2020,11,30,02,57,5.60
2020,11,30,02,58,5.60
2020,11,30,02,59,5.60
2020,11,30,03,00,5.60
2020,11,30,03,01,5.60
2020,11,30,03,02,5.60
2020,11,30,03,03,5.60
2020,11,30,03,04,5.60
2020,11,30,03,05,5.60
2020,11,30,03,06,5.60
2020,11,30,03,07,5.60
2020,11,30,03,08,5.60
2020,11,30,03,09,5.60
2020,11,30,03,10,5.60
2020,11,30,03,11,5.60
2020,11,30,03,12,5.70
2020,11,30,03,13,5.60
2020,11,30,03,14,5.60
2020,11,30,03,15,5.60
2020,11,30,03,16,5.60
2020,11,30,03,17,5.60
2020,11,30,03,18,5.60
2020,11,30,03,19,5.60
2020,11,30,03,20,5.70
2020,11,30,03,21,5.70
2020,11,30,03,22,5.70
2020,11,30,03,23,5.70
2020,11,30,03,24,5.70
2020,11,30,03,25,5.70
2020,11,30,03,26,5.70
2020,11,30,03,27,5.70
2020,11,30,03,28,5.70
2020,11,30,03,29,5.70
2020,11,30,03,30,5.70
2020,11,30,03,31,5.70
2020,11,30,03,32,5.70
2020,11,30,03,33,5.60
2020,11,30,03,34,5.60
2020,11,30,03,35,5.60
2020,11,30,03,36,5.70
2020,11,30,03,37,5.60
2020,11,30,03,38,5.60
2020,11,30,03,39,5.60
2020,11,30,03,40,5.60
2020,11,30,03,41,5.60
2020,11,30,03,42,5.60
2020,11,30,03,43,5.60
2020,11,30,03,44,5.70
2020,11,30,03,45,5.70
2020,11,30,03,46,5.70
2020,11,30,03,47,5.70
2020,11,30,03,48,5.60
2020,11,30,03,49,5.60
2020,11,30,03,50,5.60
2020,11,30,03,51,5.60
2020,11,30,03,52,5.60
2020,11,30,03,53,5.60
2020,11,30,03,54,5.60
2020,11,30,03,55,5.60
2020,11,30,03,56,5.60
2020,11,30,03,57,5.60
2020,11,30,03,58,5.60
2020,11,30,03,59,5.60
2020,11,30,04,00,5.60
2020,11,30,04,01,5.60
2020,11,30,04,02,5.60
2020,11,30,04,03,5.60
2020,11,30,04,04,5.60
2020,11,30,04,05,5.60
2020,11,30,04,06,5.60
2020,11,30,04,07,5.60
2020,11,30,04,08,5.60
2020,11,30,04,09,5.70
2020,11,30,04,10,5.70
2020,11,30,04,11,5.70
2020,11,30,04,12,5.70
2020,11,30,04,13,5.70
2020,11,30,04,14,5.70
2020,11,30,04,15,5.70
2020,11,30,04,16,5.70
2020,11,30,04,17,5.70
2020,11,30,04,18,5.70
2020,11,30,04,19,5.70
2020,11,30,04,20,5.70
2020,11,30,04,21,5.70
2020,11,30,04,22,5.70
2020,11,30,04,23,5.70
2020,11,30,04,24,5.70
2020,11,30,04,25,5.70
2020,11,30,04,26,5.70
2020,11,30,04,27,5.70
2020,11,30,04,28,5.70
2020,11,30,04,29,5.70
2020,11,30,04,30,5.70
2020,11,30,04,31,5.70
2020,11,30,04,32,5.60
2020,11,30,04,33,5.70
2020,11,30,04,34,5.60
2020,11,30,04,35,5.70
2020,11,30,04,36,5.70
2020,11,30,04,37,5.70
2020,11,30,04,38,5.70
2020,11,30,04,39,5.70
2020,11,30,04,40,5.70
2020,11,30,04,41,5.70
2020,11,30,04,42,5.70
2020,11,30,04,43,5.70
2020,11,30,04,44,5.70
2020,11,30,04,45,5.70
2020,11,30,04,46,5.70
2020,11,30,04,47,5.70
2020,11,30,04,48,5.70
2020,11,30,04,49,5.70
2020,11,30,04,50,5.80
2020,11,30,04,51,5.80
2020,11,30,04,52,5.80
2020,11,30,04,53,5.80
2020,11,30,04,54,5.80
2020,11,30,04,55,5.80
2020,11,30,04,56,5.80
2020,11,30,04,57,5.80
2020,11,30,04,58,5.80
2020,11,30,04,59,5.80
2020,11,30,05,00,5.80
2020,11,30,05,01,5.80
2020,11,30,05,02,5.80
2020,11,30,05,03,5.80
2020,11,30,05,04,5.80
2020,11,30,05,05,5.80
2020,11,30,05,06,5.80
2020,11,30,05,07,5.80
2020,11,30,05,08,5.80
2020,11,30,05,09,5.80
2020,11,30,05,10,5.80
2020,11,30,05,11,5.90
2020,11,30,05,12,5.90
2020,11,30,05,13,5.90
2020,11,30,05,14,5.90
2020,11,30,05,15,5.90
2020,11,30,05,16,5.90
2020,11,30,05,17,5.90
2020,11,30,05,18,5.90
2020,11,30,05,19,5.90
2020,11,30,05,20,5.90
2020,11,30,05,21,5.90
2020,11,30,05,22,5.90
2020,11,30,05,23,5.90
2020,11,30,05,24,5.90
2020,11,30,05,25,5.90
2020,11,30,05,26,5.90
2020,11,30,05,27,5.90
2020,11,30,05,28,5.90
2020,11,30,05,29,5.90
2020,11,30,05,30,5.90
2020,11,30,05,31,5.90
2020,11,30,05,32,5.90
2020,11,30,05,33,5.90
2020,11,30,05,34,5.90
2020,11,30,05,35,5.90
2020,11,30,05,36,5.90
2020,11,30,05,37,5.90
2020,11,30,05,38,5.90
2020,11,30,05,39,5.90
2020,11,30,05,40,5.90
2020,11,30,05,41,6.00
2020,11,30,05,42,6.00
2020,11,30,05,43,6.00
2020,11,30,05,44,6.00
2020,11,30,05,45,6.00
2020,11,30,05,46,6.00
2020,11,30,05,47,6.00
2020,11,30,05,48,6.00
2020,11,30,05,49,6.00
2020,11,30,05,50,6.00
2020,11,30,05,51,6.00
2020,11,30,05,52,6.00
2020,11,30,05,53,6.00
2020,11,30,05,54,6.00
2020,11,30,05,55,6.10
2020,11,30,05,56,6.10
2020,11,30,05,57,6.10
2020,11,30,05,58,6.10
2020,11,30,05,59,6.10
2020,11,30,06,00,6.10
2020,11,30,06,01,6.10
2020,11,30,06,02,6.10
2020,11,30,06,03,6.10
2020,11,30,06,04,6.10
2020,11,30,06,05,6.10
2020,11,30,06,06,6.10
2020,11,30,06,07,6.10
2020,11,30,06,08,6.10
2020,11,30,06,09,6.10
2020,11,30,06,10,6.10
2020,11,30,06,11,6.20
2020,11,30,06,12,6.30
2020,11,30,06,13,6.40
2020,11,30,06,14,6.50
2020,11,30,06,15,6.60
2020,11,30,06,16,6.70
2020,11,30,06,17,6.70
2020,11,30,06,18,6.70
2020,11,30,06,19,6.70
2020,11,30,06,20,6.80
2020,11,30,06,21,6.80
2020,11,30,06,22,6.80
2020,11,30,06,23,6.80
2020,11,30,06,24,6.80
2020,11,30,06,25,6.80
2020,11,30,06,26,6.80
2020,11,30,06,27,6.90
2020,11,30,06,28,6.90
2020,11,30,06,29,7.00
2020,11,30,06,30,7.20
2020,11,30,06,31,7.30
2020,11,30,06,32,7.40
2020,11,30,06,33,7.40
2020,11,30,06,34,7.40
2020,11,30,06,35,7.50
2020,11,30,06,36,7.50
2020,11,30,06,37,7.50
2020,11,30,06,38,7.50
2020,11,30,06,39,7.50
2020,11,30,06,40,7.50
2020,11,30,06,41,7.60
2020,11,30,06,42,7.60
2020,11,30,06,43,7.60
2020,11,30,06,44,7.50
2020,11,30,06,45,7.50
2020,11,30,06,46,7.50
2020,11,30,06,47,7.50
2020,11,30,06,48,7.50
2020,11,30,06,49,7.50
2020,11,30,06,50,7.50
2020,11,30,06,51,7.50
2020,11,30,06,52,7.50
2020,11,30,06,53,7.50
2020,11,30,06,54,7.50
2020,11,30,06,55,7.50
2020,11,30,06,56,7.50
2020,11,30,06,57,7.40
2020,11,30,06,58,7.40
2020,11,30,06,59,7.50
2020,11,30,07,00,7.50
2020,11,30,07,01,7.50
2020,11,30,07,02,7.40
2020,11,30,07,03,7.40
2020,11,30,07,04,7.40
2020,11,30,07,05,7.40
2020,11,30,07,06,7.40
2020,11,30,07,07,7.40
2020,11,30,07,08,7.40
2020,11,30,07,09,7.40
2020,11,30,07,10,7.40
2020,11,30,07,11,7.40
2020,11,30,07,12,7.40
2020,11,30,07,13,7.40
2020,11,30,07,14,7.40
2020,11,30,07,15,7.40
2020,11,30,07,16,7.50
2020,11,30,07,17,7.40
2020,11,30,07,18,7.40
2020,11,30,07,19,7.50
2020,11,30,07,20,7.50
2020,11,30,07,21,7.50
2020,11,30,07,22,7.60
2020,11,30,07,23,7.60
2020,11,30,07,24,7.60
2020,11,30,07,25,7.60
2020,11,30,07,26,7.60
2020,11,30,07,27,7.60
2020,11,30,07,28,7.60
2020,11,30,07,29,7.60
2020,11,30,07,30,7.60
2020,11,30,07,31,7.60
2020,11,30,07,32,7.60
2020,11,30,07,33,7.70
2020,11,30,07,34,7.70
2020,11,30,07,35,7.70
2020,11,30,07,36,7.70
2020,11,30,07,37,7.70
2020,11,30,07,38,7.80
2020,11,30,07,39,7.80
2020,11,30,07,40,7.80
2020,11,30,07,41,7.80
2020,11,30,07,42,7.80
2020,11,30,07,43,7.80
2020,11,30,07,44,7.80
2020,11,30,07,45,7.80
2020,11,30,07,46,7.80
2020,11,30,07,47,7.80
2020,11,30,07,48,7.80
2020,11,30,07,49,7.80
2020,11,30,07,50,7.80
2020,11,30,07,51,7.80
2020,11,30,07,52,7.80
2020,11,30,07,53,7.90
2020,11,30,07,54,7.90
2020,11,30,07,55,7.90
2020,11,30,07,56,7.90
2020,11,30,07,57,7.90
2020,11,30,07,58,7.90
2020,11,30,07,59,8.00
2020,11,30,08,00,8.00
2020,11,30,08,01,8.00
2020,11,30,08,02,8.00
2020,11,30,08,03,8.00
2020,11,30,08,04,8.10
2020,11,30,08,05,8.00
2020,11,30,08,06,8.00
2020,11,30,08,07,8.00
2020,11,30,08,08,8.00
2020,11,30,08,09,8.00
2020,11,30,08,10,8.10
2020,11,30,08,11,8.10
2020,11,30,08,12,8.10
2020,11,30,08,13,8.10
2020,11,30,08,14,8.10
2020,11,30,08,15,8.10
2020,11,30,08,16,8.10
2020,11,30,08,17,8.10
2020,11,30,08,18,8.20
2020,11,30,08,19,8.20
2020,11,30,08,20,8.20
2020,11,30,08,21,8.10
2020,11,30,08,22,8.10
2020,11,30,08,23,8.10
2020,11,30,08,24,8.10
2020,11,30,08,25,8.10
2020,11,30,08,26,8.10
2020,11,30,08,27,8.10
2020,11,30,08,28,8.10
2020,11,30,08,29,8.10
2020,11,30,08,30,8.00
2020,11,30,08,31,8.00
2020,11,30,08,32,8.00
2020,11,30,08,33,8.00
2020,11,30,08,34,8.00
2020,11,30,08,35,8.00
2020,11,30,08,36,8.00
2020,11,30,08,37,8.00
2020,11,30,08,38,8.10
2020,11,30,08,39,8.10
2020,11,30,08,40,8.10
2020,11,30,08,41,8.20
2020,11,30,08,42,8.20
2020,11,30,08,43,8.20
2020,11,30,08,44,8.20
2020,11,30,08,45,8.10
2020,11,30,08,46,8.10
